Location: *
(10.4782°N, 67.2163°W)
Time: 12:37:44
(UTC+00:00)

Geosat - Pass Details

Date: 23 May 2024
Orbit: 760 x 763 km, 108.1° (Epoch: 25 June)

Event Time Altitude Azimuth Distance (km) Brightness Sun altitude
Rises 08:53:02 0° 162° (SSE) 3,209 7.1 -17.3°
Reaches altitude 10° 08:55:18 10° 164° (SSE) 2,284 6.4 -16.8°
Maximum altitude 09:00:16 74° 248° (WSW) 791 3.9 -15.7°
Drops below altitude 10° 09:05:14 10° 333° (NNW) 2,285 6.4 -14.6°
Sets 09:07:30 0° 335° (NNW) 3,211 7.2 -14.1°
